This is the latest recevied weather packets stored in our database for station/object DM1HF-13. If no packets are shown the sender has not sent any weather packets the latest 10 day(s).
| Time | Temp. | Humidity | Pressure | Rain* | Wind** | Luminosity | Snow |
|---|---|---|---|---|---|---|---|
| 1777897817 | 22.78° C | 47% | 1014.9 hPa | 0 mm | - | 192 W/m² | - |
| 1777897517 | 22.78° C | 45% | 1014.9 hPa | 0 mm | - | 194 W/m² | - |
| 1777897217 | 22.78° C | 48% | 1014.9 hPa | 0 mm | - | 195 W/m² | - |
| 1777896916 | 23.33° C | 46% | 1014.8 hPa | 0 mm | - | 191 W/m² | - |
| 1777896617 | 23.33° C | 45% | 1014.8 hPa | 0 mm | - | 342 W/m² | - |
| 1777896317 | 23.89° C | 43% | 1014.8 hPa | 0 mm | - | 407 W/m² | - |
| 1777896017 | 23.33° C | 43% | 1015 hPa | 0 mm | - | 344 W/m² | - |
| 1777895717 | 23.33° C | 43% | 1015 hPa | 0 mm | - | 573 W/m² | - |
| 1777895416 | 22.78° C | 44% | 1015.1 hPa | 0 mm | - | 669 W/m² | - |
| 1777895117 | 22.78° C | 45% | 1015 hPa | 0 mm | - | 605 W/m² | - |
| 1777894817 | 22.78° C | 45% | 1015 hPa | 0 mm | - | 491 W/m² | - |
| 1777894517 | 23.33° C | 44% | 1015.1 hPa | 0 mm | - | 503 W/m² | - |
| 1777894217 | 23.33° C | 44% | 1015 hPa | 0 mm | - | 517 W/m² | - |
| 1777893917 | 23.33° C | 43% | 1015.1 hPa | 0 mm | - | 607 W/m² | - |
| 1777893617 | 22.78° C | 44% | 1015.1 hPa | 0 mm | - | 615 W/m² | - |
| 1777893316 | 22.22° C | 46% | 1015.1 hPa | 0 mm | - | 581 W/m² | - |
| 1777893017 | 22.78° C | 45% | 1015.2 hPa | 0 mm | - | 720 W/m² | - |
| 1777892717 | 22.78° C | 44% | 1015.2 hPa | 0 mm | - | 559 W/m² | - |
| 1777892417 | 22.78° C | 44% | 1015.3 hPa | 0 mm | - | 582 W/m² | - |
| 1777892117 | 22.22° C | 47% | 1015.4 hPa | 0 mm | - | 488 W/m² | - |
| 1777891816 | 22.78° C | 45% | 1015.5 hPa | 0 mm | - | 492 W/m² | - |
| 1777891517 | 22.22° C | 46% | 1015.5 hPa | 0 mm | - | 482 W/m² | - |
| 1777891217 | 21.67° C | 49% | 1015.5 hPa | 0 mm | - | 574 W/m² | - |
| 1777890917 | 22.22° C | 47% | 1015.6 hPa | 0 mm | - | 566 W/m² | - |
| 1777890617 | 22.22° C | 45% | 1015.7 hPa | 0 mm | - | 607 W/m² | - |
* Rain latest hour (hover to see other rain measurements)
** Current wind speed in m/s (hover to see current wind gust speed)